• In Deutschland
  • Länderverzeichnis
  • Für 7 Tage
  • Wassertemperatur
  • Satellitenkarten
  • Wetterkarte
  • Widgets
  • user-avatar
    Anmelden

    Stündliche Wetter Vanadzor

    Heute, 29 Juni, Donnerstag

    Zeit Temperatur Niederschläge Wind Luftdruck Luftfeuchtigkeit
    00:00 +15°C° 0,4 mm 1 m/S 635 mmHg 93%
    01:00 +15°C° 1,3 mm 1 m/S 634 mmHg 93%
    02:00 +15°C° 1,3 mm 1 m/S 634 mmHg 94%
    03:00 +15°C° 1,3 mm 1 m/S 634 mmHg 94%
    04:00 +15°C° 0,5 mm 1 m/S 635 mmHg 93%
    05:00 +16°C° 0,5 mm 1 m/S 635 mmHg 93%
    06:00 +18°C° 0,5 mm 1 m/S 635 mmHg 92%
    07:00 +20°C° 0,1 mm 1 m/S 636 mmHg 85%
    08:00 +21°C° 0,1 mm 1 m/S 636 mmHg 77%
    09:00 +23°C° 0,1 mm 1 m/S 637 mmHg 70%
    10:00 +24°C° 0,2 mm 1 m/S 637 mmHg 65%
    11:00 +26°C° 0,2 mm 1 m/S 637 mmHg 59%
    12:00 +27°C° 0,2 mm 1 m/S 637 mmHg 54%
    13:00 +27°C° 0,4 mm 1 m/S 637 mmHg 54%
    14:00 +27°C° 0,4 mm 1 m/S 636 mmHg 55%
    15:00 +27°C° 0,4 mm 1 m/S 636 mmHg 55%
    16:00 +26°C° 0,8 mm 1 m/S 636 mmHg 62%
    17:00 +25°C° 0,8 mm 2 m/S 636 mmHg 69%
    18:00 +23°C° 0,8 mm 2 m/S 635 mmHg 76%
    19:00 +21°C° 0,5 mm 1 m/S 635 mmHg 81%
    20:00 +19°C° 0,5 mm 1 m/S 635 mmHg 86%
    21:00 +15°C° 0,5 mm 1 m/S 634 mmHg 91%
    22:00 +15°C° 0,3 mm 1 m/S 634 mmHg 92%
    23:00 +14°C° 0,3 mm 1 m/S 634 mmHg 92%

    Morgen, 30 Juni, Freitag

    Zeit Temperatur Niederschläge Wind Luftdruck Luftfeuchtigkeit
    00:00 +14°C° 0,3 mm 1 m/S 634 mmHg 93%
    01:00 +13°C° 0,2 mm 1 m/S 634 mmHg 93%
    02:00 +13°C° 0,2 mm 1 m/S 634 mmHg 94%
    03:00 +12°C° 0,2 mm 1 m/S 634 mmHg 94%
    04:00 +14°C° 0,1 mm 1 m/S 634 mmHg 93%
    05:00 +15°C° 0,1 mm 1 m/S 635 mmHg 91%
    06:00 +16°C° 0,1 mm 1 m/S 636 mmHg 89%
    07:00 +19°C° 0 mm 1 m/S 636 mmHg 81%
    08:00 +20°C° 0 mm 1 m/S 637 mmHg 72%
    09:00 +22°C° 0 mm 1 m/S 637 mmHg 63%
    10:00 +23°C° 0,2 mm 1 m/S 637 mmHg 60%
    11:00 +24°C° 0,2 mm 2 m/S 637 mmHg 57%
    12:00 +25°C° 0,2 mm 2 m/S 637 mmHg 54%
    13:00 +25°C° 0,6 mm 2 m/S 637 mmHg 56%
    14:00 +25°C° 0,6 mm 2 m/S 636 mmHg 58%
    15:00 +25°C° 0,6 mm 2 m/S 636 mmHg 59%
    16:00 +24°C° 0,6 mm 2 m/S 636 mmHg 64%
    17:00 +23°C° 0,6 mm 2 m/S 636 mmHg 69%
    18:00 +21°C° 0,6 mm 2 m/S 636 mmHg 74%
    19:00 +19°C° 0,3 mm 2 m/S 636 mmHg 79%
    20:00 +16°C° 0,3 mm 2 m/S 635 mmHg 85%
    21:00 +14°C° 0,3 mm 1 m/S 635 mmHg 91%
    22:00 +14°C° 0,1 mm 1 m/S 635 mmHg 91%
    23:00 +13°C° 0,1 mm 1 m/S 635 mmHg 91%

    übermorgen, 1 Juli, Samstag

    Zeit Temperatur Niederschläge Wind Luftdruck Luftfeuchtigkeit
    00:00 +13°C° 0,1 mm 1 m/S 635 mmHg 92%
    01:00 +13°C° 0 mm 1 m/S 635 mmHg 92%
    02:00 +12°C° 0 mm 1 m/S 635 mmHg 92%
    03:00 +12°C° 0 mm 1 m/S 635 mmHg 92%
    04:00 +13°C° 0 mm 1 m/S 636 mmHg 90%
    05:00 +14°C° 0 mm 1 m/S 636 mmHg 88%
    06:00 +15°C° 0 mm 1 m/S 637 mmHg 86%
    07:00 +18°C° 0 mm 1 m/S 637 mmHg 75%
    08:00 +20°C° 0 mm 1 m/S 638 mmHg 64%
    09:00 +22°C° 0 mm 1 m/S 638 mmHg 53%
    10:00 +23°C° 0 mm 2 m/S 639 mmHg 49%
    11:00 +24°C° 0 mm 2 m/S 639 mmHg 45%
    12:00 +25°C° 0 mm 2 m/S 639 mmHg 41%
    13:00 +26°C° 0 mm 2 m/S 639 mmHg 41%
    14:00 +26°C° 0 mm 2 m/S 638 mmHg 41%
    15:00 +26°C° 0 mm 2 m/S 638 mmHg 41%
    16:00 +25°C° 0 mm 2 m/S 638 mmHg 46%
    17:00 +25°C° 0 mm 2 m/S 638 mmHg 50%
    18:00 +24°C° 0 mm 2 m/S 637 mmHg 55%
    19:00 +20°C° 0,1 mm 2 m/S 637 mmHg 62%
    20:00 +18°C° 0,1 mm 1 m/S 636 mmHg 70%
    21:00 +14°C° 0,1 mm 1 m/S 636 mmHg 78%
    22:00 +13°C° 0 mm 1 m/S 636 mmHg 76%
    23:00 +13°C° 0 mm 1 m/S 636 mmHg 74%

    2 Juli, Sonntag

    Zeit Temperatur Niederschläge Wind Luftdruck Luftfeuchtigkeit
    00:00 +13°C° 0 mm 1 m/S 636 mmHg 73%
    01:00 +12°C° 0 mm 1 m/S 636 mmHg 71%
    02:00 +12°C° 0 mm 1 m/S 635 mmHg 70%
    03:00 +12°C° 0 mm 1 m/S 635 mmHg 69%
    04:00 +13°C° 0 mm 1 m/S 636 mmHg 68%
    05:00 +14°C° 0 mm 1 m/S 636 mmHg 66%
    06:00 +15°C° 0 mm 1 m/S 637 mmHg 65%
    07:00 +18°C° 0 mm 1 m/S 637 mmHg 57%
    08:00 +21°C° 0 mm 1 m/S 638 mmHg 48%
    09:00 +23°C° 0 mm 1 m/S 638 mmHg 40%
    10:00 +25°C° 0 mm 1 m/S 638 mmHg 38%
    11:00 +26°C° 0 mm 2 m/S 638 mmHg 36%
    12:00 +27°C° 0 mm 2 m/S 638 mmHg 34%
    13:00 +27°C° 0 mm 2 m/S 638 mmHg 35%
    14:00 +28°C° 0 mm 2 m/S 638 mmHg 35%
    15:00 +28°C° 0 mm 2 m/S 637 mmHg 36%
    16:00 +27°C° 0 mm 2 m/S 637 mmHg 42%
    17:00 +26°C° 0 mm 2 m/S 636 mmHg 47%
    18:00 +25°C° 0 mm 1 m/S 636 mmHg 53%
    19:00 +22°C° 0 mm 1 m/S 636 mmHg 63%
    20:00 +19°C° 0 mm 1 m/S 635 mmHg 72%
    21:00 +15°C° 0 mm 1 m/S 634 mmHg 82%
    22:00 +14°C° 0 mm 1 m/S 634 mmHg 81%
    23:00 +14°C° 0 mm 1 m/S 635 mmHg 80%

    3 Juli, Montag

    Zeit Temperatur Niederschläge Wind Luftdruck Luftfeuchtigkeit
    00:00 +14°C° 0 mm 1 m/S 635 mmHg 78%
    01:00 +13°C° 0 mm 1 m/S 634 mmHg 79%
    02:00 +13°C° 0 mm 1 m/S 634 mmHg 80%
    03:00 +13°C° 0 mm 1 m/S 634 mmHg 81%
    04:00 +14°C° 0 mm 1 m/S 634 mmHg 78%
    05:00 +15°C° 0 mm 1 m/S 635 mmHg 75%
    06:00 +18°C° 0 mm 1 m/S 635 mmHg 72%
    07:00 +20°C° 0 mm 1 m/S 636 mmHg 62%
    08:00 +23°C° 0 mm 1 m/S 636 mmHg 51%
    09:00 +26°C° 0 mm 1 m/S 637 mmHg 41%
    10:00 +27°C° 0 mm 1 m/S 637 mmHg 38%
    11:00 +28°C° 0 mm 1 m/S 637 mmHg 36%
    12:00 +30°C° 0 mm 2 m/S 637 mmHg 33%
    13:00 +30°C° 0 mm 2 m/S 636 mmHg 33%
    14:00 +30°C° 0 mm 2 m/S 636 mmHg 34%
    15:00 +30°C° 0 mm 2 m/S 636 mmHg 34%
    16:00 +29°C° 0,1 mm 1 m/S 636 mmHg 41%
    17:00 +28°C° 0,1 mm 1 m/S 635 mmHg 48%
    18:00 +27°C° 0,1 mm 1 m/S 635 mmHg 55%
    19:00 +23°C° 0,1 mm 1 m/S 634 mmHg 64%
    20:00 +20°C° 0,1 mm 1 m/S 633 mmHg 73%
    21:00 +15°C° 0,1 mm 1 m/S 632 mmHg 82%
    22:00 +15°C° 0 mm 1 m/S 632 mmHg 83%
    23:00 +15°C° 0 mm 1 m/S 632 mmHg 83%

    4 Juli, Dienstag

    Zeit Temperatur Niederschläge Wind Luftdruck Luftfeuchtigkeit
    00:00 +15°C° 0 mm 1 m/S 632 mmHg 84%
    01:00 +14°C° 0 mm 1 m/S 632 mmHg 85%
    02:00 +14°C° 0 mm 1 m/S 632 mmHg 85%
    03:00 +13°C° 0 mm 1 m/S 632 mmHg 86%
    04:00 +15°C° 0 mm 1 m/S 632 mmHg 83%
    05:00 +18°C° 0 mm 1 m/S 633 mmHg 79%
    06:00 +20°C° 0 mm 1 m/S 634 mmHg 76%
    07:00 +22°C° 0 mm 1 m/S 634 mmHg 64%
    08:00 +25°C° 0 mm 1 m/S 635 mmHg 52%
    09:00 +28°C° 0 mm 1 m/S 636 mmHg 39%
    10:00 +29°C° 0 mm 1 m/S 636 mmHg 37%
    11:00 +30°C° 0 mm 1 m/S 636 mmHg 35%
    12:00 +32°C° 0 mm 1 m/S 636 mmHg 32%
    13:00 +32°C° 0,1 mm 1 m/S 636 mmHg 33%
    14:00 +32°C° 0,1 mm 1 m/S 636 mmHg 34%
    15:00 +32°C° 0,1 mm 1 m/S 635 mmHg 34%
    16:00 +31°C° 0,2 mm 1 m/S 635 mmHg 41%
    17:00 +30°C° 0,2 mm 1 m/S 635 mmHg 48%
    18:00 +28°C° 0,2 mm 1 m/S 635 mmHg 55%
    19:00 +25°C° 0,3 mm 1 m/S 634 mmHg 63%
    20:00 +22°C° 0,3 mm 1 m/S 633 mmHg 72%
    21:00 +19°C° 0,3 mm 1 m/S 633 mmHg 80%
    22:00 +18°C° 0,4 mm 1 m/S 633 mmHg 82%
    23:00 +18°C° 0,4 mm 1 m/S 633 mmHg 83%
    Mehr zeigen